Kuiper-00105

operational
NORAD ID: 65143 Int'l Des: 2025-171 Owner: KUIP Country: US Constellation: kuiper
LEOCIRCULAR

关于 Kuiper-00105

正在加载描述...

实时位置

正在加载3D地球...

即将过境

高度历史

Altitude vs Time

uPlot chart will show altitude changes over time

两行轨道根数

1 65143U 25171M 25304.25002315 -.00321633 00000-0 -26244-1 0 9996
2 65143 51.9117 19.2081 0010140 34.7200 321.8159 15.00666528 5810
Epoch: Oct 31, 2025 • Age: 14 hours

当前状态

高度 578.9 km
速度 7.57 km/s
星下点 -21.31°S, 121.92°W
发射日期 Aug 11, 2025
运行时间 0.2 years
类型 internet

技术详情

分类 Payload
质量 490.00 kg
干质量 490.00 kg
总质量 490.00 kg
长度 1.80 m
直径 0.70 m
跨度 5.00 m
形状 Box + 2 pan
制造商 KUIP
平台类型 Kuiper
阶段状态 In Orbit
所有者/国家 KUIP/US

大型星座

Loading constellations...